NEW HOGAN LAKE (NHG)

Elevation: 554' · CALAVERAS R basin · Operator: US Army Corps of Engineers

Provisional data, subject to change.
Query executed Wednesday at 0:59:06   clock

Select a sensor type for a plot of data.
Note: Reservoir Flows are daily averages.

Earlier

Date RES ELE    STORAGE    RES CHG    TOC STO    ABV TOC    OUTFLOW    INFLOW    FNF    PPT INC    TEMP MN    TEMP MX   
 FEET   AF   AF   AF   AF   CFS   CFS   CFS   INCHES   DEG F   DEG F  
09/02/2014 619.35 51208 -332 317100 -265892 165 16 16 0.00 19 36
09/03/2014 619.12 50862 -346 317100 -266238 173 14 14 0.00 14 34
09/04/2014 618.89 50517 -360 317100 -266598 179 21 -- 0.00 16 35
09/05/2014 618.64 50144 -373 317100 -266956 183 10 10 0.00 16 33
09/06/2014 618.39 49772 -372 317100 -267328 184 12 12 0.00 18 34
09/07/2014 618.23 49535 -237 317100 -267565 133 29 29 0.00 15 35
09/08/2014 618.04 49255 -280 317100 -267845 135 8 -- 0.00 15 31
09/09/2014 617.86 48990 -265 317100 -268110 144 24 24 0.00 12 32
09/10/2014 617.67 48711 -279 317100 -268389 147 23 23 0.00 15 35
09/11/2014 617.41 48332 -379 317100 -268768 197 23 -- 0.00 17 37
09/12/2014 617.14 47939 -393 317100 -269161 221 41 41 0.00 18 38
09/13/2014 616.92 47621 -318 317100 -269479 180 36 36 0.00 21 38
09/14/2014 616.72 47333 -288 317100 -269767 157 27 27 0.00 18 38
09/15/2014 616.53 47060 -273 317100 -270040 138 16 16 0.00 19 34
09/16/2014 616.37 46831 -229 317100 -270269 123 20 20 0.00 16 33
09/17/2014 616.21 46603 -228 317100 -270497 119 19 19 0.00 16 35
09/18/2014 616.02 46332 -271 317100 -270768 121 -5 -5 0.00 19 29
09/19/2014 615.83 46063 -269 317100 -271037 137 11 11 0.00 16 30
09/20/2014 615.65 45809 -254 317100 -271291 113 -3 -3 0.00 17 31
09/21/2014 615.49 45583 -226 317100 -271517 105 -0 0 0.00 16 28
09/22/2014 615.31 45330 -253 317100 -271770 107 -9 -9 0.00 14 31
09/23/2014 615.15 45106 -224 317100 -271994 101 -0 0 0.00 16 32
09/24/2014 615.01 44911 -195 317100 -272189 96 9 -- 0.00 17 31
09/25/2014 614.90 44758 -153 317100 -272342 84 11 11 0.09 13 21
09/26/2014 614.78 44591 -167 317100 -272509 66 -9 -9 0.02 12 24
09/27/2014 614.69 44466 -125 317100 -272634 55 -0 0 0.01 12 24
09/28/2014 614.61 44356 -110 317100 -272744 49 -2 -2 0.00 14 22
09/29/2014 614.52 44231 -125 317100 -272869 49 -5 -- 0.02 12 27
09/30/2014 -- -- -- -- -- -- -- -- -- -- --
10/01/2014 -- -- -- -- -- -- -- -- -- -- --

Later | Latest

Warning! This data is preliminary and subject to revision.

Download Data Now Download Data Now | Show NHG Map | Plot NHG Data | 1 Month NHG Data | Real-Time NHG Data | NHG Info